Weather in Aylino

Russia / Chelyabinsk Oblast     55°13′38″N   58°49′41″E
temp.,
°C
wind,
m/s
gust,
m/s
humid.,
%
clouds,
%
prec.,
mm/h
press.,
hPa
HPBL,
m
9 march, tue
tue923:00−5sw6129195 2.3 10051059
02:00−9ssw369274 0.0 1005110
05:00−8se229687 0.5 100332
08:00−5sw41396100 1.7 10021084
11:00−6wsw10158394 2.2 10051153
14:00−5wnw7980100 0.2 10081244
17:00−5wsw458299 0.3 1009833
20:00−12ssw129089 0.0 101021
10 march, wed
wed1023:00−11e228992 0.0 101021
02:00−10e2495100 0.1 1007117
05:00−9ese3491100 0.2 1004112
08:00−9e3595100 0.3 1000206
11:00−6e2488100 1.3 998342
14:00−4e2394100 0.9 997318
17:00−4ese2396100 3.8 998340
20:00−10nnw91394100 3.1 1000716
11 march, thu
thu1123:00−13nnw61095100 4.7 1003649
02:00−16nw61096100 1.0 1005563
05:00−17nw5996100 1.6 1008490
08:00−20nw5898100 0.6 1011434
11:00−19nw5793100 0.9 1014539
14:00−16wnw578255 0.0 1015644
17:00−15wnw698546 0.0 1016761
20:00−19w61196100 0.3 1018540
12 march, fri
fri1223:00−20wsw61296100 0.6 1020437
02:00−20wsw61397100 0.7 1020482
05:00−20wsw61394100 1.1 1020401
08:00−21wsw61394100 0.1 1022355
11:00−17wsw71192100 0.1 1023511
14:00−13w71189100 0.0 1023629
17:00−12w7128794 0.0 1023702
20:00−15sw61393100 0.0 1025433
13 march, sat
sat1323:00−15wsw61293100 0.1 1026429
02:00−15wsw61393100 0.1 1027405
05:00−16wsw61393100 0.3 1028433
08:00−17wsw51294100 0.1 1029367
11:00−14wsw6992100 0.1 1029516
14:00−10w6990100 0.1 1029601
17:00−10w6990100 0.1 1028599
20:00−13wsw4994100 0.0 1029262